Regional Weather Roundup
Issued by NWS

Home | Current Version | Previous Version | Graphics & Text | Print | Product List | Glossary On
Versions: 1 2 3 4 5 6 7 8 9 10 11 12 13 14 15 16 17 18 19 20 21 22 23 24 25 26 27 28 29 30 31 32 33 34 35 36 37 38 39 40 41 42 43 44 45 46 47 48 49 50
000
ASUS43 KLOT 280600
RWRIL

ILLINOIS REGIONAL WEATHER ROUNDUP
NATIONAL WEATHER SERVICE CHICAGO/ROMEOVILLE IL
100 AM CDT FRI AUG 28 2015

NOTE: "FAIR" INDICATES FEW OR NO CLOUDS BELOW 12,000 FEET WITH NO
SIGNIFICANT WEATHER AND/OR OBSTRUCTIONS TO VISIBILITY.

* THESE STATIONS ARE NOT UNDER NWS QUALITY CONTROL. THEY ALSO MAY NOT
  REPORT WEATHER SUCH AS PRECIPITATION OR FOG.

ILZ001-002-007-009-015-016-024-280700-
NORTHWEST ILLINOIS

CITY           SKY/WX    TMP DP  RH WIND       PRES   REMARKS
MOLINE         FAIR      62  58  86 E6        30.08F
6HR MIN TEMP:  61; 6HR MAX TEMP:  70;

STERLING*      FAIR      61  55  82 SE5       30.11S
SAVANNA*       FAIR      63  58  84 SE5       30.11S
$$

ILZ003-004-008-010-011-017-018-280700-
NORTH CENTRAL ILLINOIS

CITY           SKY/WX    TMP DP  RH WIND       PRES   REMARKS
ROCKFORD       MOCLDY    59  55  87 SE5       30.13F
6HR MIN TEMP:  58; 6HR MAX TEMP:  69;

FREEPORT*      FAIR      58  56  92 S6        30.14S
$$

ILZ005-006-012>014-019>023-280700-
NORTHEAST ILLINOIS

CITY           SKY/WX    TMP DP  RH WIND       PRES   REMARKS
CHICAGO-OHARE  FAIR      59  55  87 SE3       30.13S
6HR MIN TEMP:  59; 6HR MAX TEMP:  69;

CHICAGO-MIDWAY FAIR      65  55  70 S3        30.14R
6HR MIN TEMP:  65; 6HR MAX TEMP:  70;

AURORA         FAIR      54  52  93 CALM      30.15R FOG
6HR MIN TEMP:  54; 6HR MAX TEMP:  68;

WAUKEGAN       FAIR      55  54  96 CALM      30.13S FOG
6HR MIN TEMP:  54; 6HR MAX TEMP:  64;

DUPAGE AIRPORT FAIR      56  53  90 CALM      30.13F
6HR MIN TEMP:  56; 6HR MAX TEMP:  69;

WHEELING       FAIR      58  53  84 CALM      30.15S
6HR MIN TEMP:  57; 6HR MAX TEMP:  67;

NORTHERLY ISL    N/A     63  59  87 S5          N/A
$$

LMZ740>746-280700-
SOUTHERN LAKE MICHIGAN

STATION/POSITION SKY/WX   TEMP    WIND        PRES    VSBY  WAVE
                          AIR SEA DIR/SP/G                  HT/PER
                          (F)     (DEG/KT/KT) (MB)    (MI)  (FT/S)
SOUTHERN BUOY              66 68  160/ 10/ 12 1020.5R         1
WILMETTE HARBOR            62 62  360/  2/  4   N/A           1
HARRISON CRIB              67     130/ 14/ 15   N/A
BURNHAM HARBOR             63     200/  2/  4   N/A
CALUMET HARBOR             66     120/  4/  5   N/A
BURNS HARBOR               62      80/  7/  8 1021.0
MICHIGAN CITY              60      80/  3/  4   N/A
MICHIGAN CITY 6N           65 71  110/  8/  8   N/A           1
ST. JOSEPH                 65 71  180/  8/ 10   N/A           1
$$

ILZ025>027-034>036-040-047-049-050-058-095>099-280700-
WEST-CENTRAL ILLINOIS

CITY           SKY/WX    TMP DP  RH WIND       PRES   REMARKS
QUINCY         FAIR      62  58  86 SE7       30.09S
MACOMB*        FAIR      55  55  99 CALM      30.12S
$$

ILZ028>032-037-038-041>044-048-051>054-059>061-280700-
CENTRAL ILLINOIS

CITY           SKY/WX    TMP DP  RH WIND       PRES   REMARKS
DECATUR        FAIR      59  55  87 E3        30.12S
PEORIA         FAIR      64  58  80 NE5       30.11R
6HR MIN TEMP:  63; 6HR MAX TEMP:  74;

SPRINGFIELD    FAIR      60  58  92 SE5       30.10F
6HR MIN TEMP:  59; 6HR MAX TEMP:  74;

TAYLORVILLE    NOT AVBL
$$

ILZ033-039-045-046-055>057-062-063-280700-
EAST-CENTRAL ILLINOIS

CITY           SKY/WX    TMP DP  RH WIND       PRES   REMARKS
CHAMPAIGN      FAIR      61  58  90 E5        30.13S
MATTOON        FAIR      60  56  86 CALM      30.12R
$$

ILZ079-100>102-280700-
SOUTHWEST ILLINOIS

CITY           SKY/WX    TMP DP  RH WIND       PRES   REMARKS
CAHOKIA*       FAIR      61  57  87 CALM      30.10R
$$

ILZ064>066-069>071-074>076-080>082-084>086-088>090-092>094-280700-
SOUTH-CENTRAL ILLINOIS

CITY           SKY/WX    TMP DP  RH WIND       PRES   REMARKS
CARBONDALE     FOG       59  58  96 CALM      30.10S VSB 1/2
6HR MIN TEMP:  59; 6HR MAX TEMP:  74;

MT. VERNON     FAIR      57  52  82 CALM      30.11S
SALEM*         FAIR      59  57  93 CALM      30.11S
$$

ILZ067-068-072-073-078-083-087-091-280700-
SOUTHEAST ILLINOIS

CITY           SKY/WX    TMP DP  RH WIND       PRES   REMARKS
LAWRENCEVILLE  FAIR      61  59  93 CALM      30.11S
FLORA*         FAIR      58  57  95 CALM      30.12R
ROBINSON*      FAIR      56  55  95 CALM      30.13R
$$

ABBREVIATIONS USED IN REMARKS
   TC - TEMPERATURE IN CELSIUS
  WCI - WIND CHILL INDEX
   HX - HEAT INDEX
  VSB - VISIBILITY
$$



USA.gov is the U.S. government's official web portal to all federal, state and local government web resources and services.